EW0294 Weather Reports


time (UTC)temp
F
wind
direction
speed
knots
gust
knots
rain 1hr
in
rain 24hr
in
rain mn
in
humidity
%
barometer
mb
20260508060056 36 9 0.0 0.0 0.00 0.00 0.00 78 1005.2
20260508054555 36 9 0.0 0.0 0.00 0.00 0.00 77 1005.3
20260508053053 36 9 0.0 0.0 0.00 0.00 0.00 77 1005.4
20260508051551 37 9 0.0 0.9 0.00 0.00 0.00 77 1005.6
20260508050051 37 9 0.0 0.0 0.00 0.00 0.00 76 1005.6
20260508044550 37 10 0.0 0.0 0.00 0.05 0.00 75 1005.7
20260508043047 37 9 0.0 0.0 0.00 0.05 0.00 74 1005.8
20260508041545 37 9 0.0 0.9 0.00 0.05 0.00 74 1005.9
20260508040043 37 9 0.0 0.9 0.00 0.05 0.00 74 1005.9
20260508034543 37 9 0.0 0.0 0.00 0.17 0.05 75 1005.9
20260508033042 38 9 0.0 0.0 0.00 0.17 0.05 78 1006.0
20260508031539 38 9 0.0 0.0 0.00 0.17 0.05 76 1005.7
20260508030043 38 9 0.0 0.0 0.00 0.17 0.05 75 1005.7
20260508024539 39 9 0.0 0.0 0.00 0.24 0.05 73 1005.6
20260508023033 40 9 0.0 0.0 0.00 0.24 0.05 67 1005.7
20260508021536 41 9 0.0 0.0 0.00 0.24 0.05 67 1005.6
20260508020028 42 10 0.0 0.0 0.00 0.24 0.05 63 1005.6
20260508014524 43 10 0.0 0.0 0.00 0.30 0.05 60 1005.8
20260508013034 44 9 0.0 0.0 0.00 0.30 0.05 56 1005.8
20260508011522 45 9 0.0 0.9 0.00 0.30 0.05 56 1005.9
20260508010021 46 9 0.0 0.9 0.00 0.30 0.05 51 1005.7
20260508004533 47 355 0.0 3.5 0.00 0.64 0.05 50 1005.8
20260508003022 47 309 0.0 0.0 0.00 0.64 0.05 49 1005.5
20260508001518 48 309 0.0 2.6 0.00 0.64 0.05 48 1005.4
20260508000015 49 331 0.0 5.2 0.00 0.64 0.05 43 1005.1
20260507234515 50 305 0.9 3.5 0.00 0.64 0.05 40 1005.0
20260507233027 51 338 1.7 9.6 0.00 0.64 0.05 41 1004.9
20260507231513 52 309 0.9 7.0 0.00 0.64 0.05 41 1004.6
20260507230013 52 329 1.7 5.2 0.00 0.64 0.05 40 1004.5
20260507224513 53 22 0.9 9.6 0.00 0.69 0.05 41 1004.2
20260507223012 53 15 1.7 6.1 0.00 0.69 0.05 39 1004.1
20260507221517 54 44 0.9 7.8 0.00 0.69 0.05 40 1004.1
20260507220012 55 284 1.7 7.0 0.00 0.69 0.05 39 1004.0
20260507214510 56 292 1.7 5.2 0.00 0.75 0.05 38 1003.9
20260507213010 56 307 2.6 7.0 0.00 0.75 0.05 39 1003.8
20260507211509 56 350 3.5 10.4 0.00 0.75 0.05 39 1003.5
20260507210023 57 355 2.6 8.7 0.00 0.75 0.05 37 1003.3
20260507204507 58 252 1.7 9.6 0.00 0.77 0.05 39 1002.9
20260507203008 58 334 3.5 7.8 0.00 0.77 0.05 40 1002.6
20260507201508 58 288 0.9 6.1 0.00 0.77 0.05 37 1002.4
20260507200006 59 337 1.7 7.0 0.00 0.77 0.05 39 1002.3
20260507194505 59 345 2.6 6.1 0.00 1.15 0.05 37 1002.3
20260507193005 61 290 1.7 10.4 0.00 1.15 0.05 36 1002.2
20260507191503 61 279 1.7 14.8 0.00 1.15 0.05 35 1002.3
20260507190002 60 296 1.7 9.6 0.00 1.49 0.05 37 1002.1
20260507184606 60 225 1.7 7.0 0.00 1.49 0.05 43 1002.2
20260507183057 60 5 1.7 5.2 0.00 1.49 0.05 47 1002.5
20260507181556 60 263 2.6 7.0 0.00 1.49 0.05 47 1002.7
20260507174556 58 318 1.7 6.1 0.00 1.53 0.05 50 1002.8
20260507173054 59 300 0.9 5.2 0.00 1.53 0.05 51 1002.7
20260507171552 58 331 2.6 9.6 0.00 1.53 0.05 51 1002.8
20260507170052 59 302 1.7 10.4 0.00 1.53 0.05 50 1003.0
20260507164555 61 296 2.6 8.7 0.00 1.57 0.05 45 1003.0
20260507163050 61 35 2.6 7.8 0.00 1.57 0.05 47 1003.1
20260507161549 59 219 1.7 8.7 0.00 1.57 0.05 50 1003.1
20260507160046 60 240 2.6 7.8 0.00 1.57 0.05 45 1003.4
20260507154543 60 231 0.9 7.8 0.00 1.57 0.05 57 1003.4
20260507153045 60 255 1.7 7.8 0.00 1.57 0.05 54 1003.5
20260507151541 60 262 1.7 5.2 0.00 1.57 0.05 58 1003.4
20260507150039 58 319 0.9 5.2 0.00 1.57 0.05 61 1003.6
20260507144537 56 82 0.0 2.6 0.00 1.57 0.05 62 1003.8
20260507143038 57 262 0.9 4.3 0.00 1.57 0.05 54 1003.9
20260507141534 57 99 0.9 5.2 0.00 1.57 0.05 59 1004.0
20260507140032 56 5 0.9 5.2 0.00 1.57 0.05 60 1004.1
20260507134531 55 281 1.7 4.3 0.00 1.57 0.05 63 1004.4
20260507133030 54 182 2.6 7.0 0.00 1.57 0.05 64 1004.2
20260507131526 53 281 0.9 3.5 0.00 1.57 0.05 68 1004.1
20260507130036 53 327 0.9 3.5 0.00 1.57 0.05 72 1004.4
20260507124527 52 343 0.9 2.6 0.00 1.57 0.05 75 1004.6
20260507123020 51 350 0.9 2.6 0.00 1.57 0.05 73 1004.7
20260507121516 50 69 0.0 1.7 0.00 1.57 0.05 81 1004.8
20260507120020 49 344 0.0 1.7 0.00 1.57 0.05 87 1004.9
20260507114512 46 340 0.0 0.0 0.00 1.57 0.05 94 1005.0
20260507113011 45 340 0.0 0.0 0.00 1.57 0.05 94 1004.9
20260507111513 45 340 0.0 0.0 0.00 1.57 0.05 94 1004.9
20260507110010 45 340 0.0 0.0 0.00 1.57 0.05 94 1005.0
20260507104510 45 340 0.0 0.0 0.00 1.57 0.05 94 1004.8
20260507103017 44 340 0.0 0.0 0.00 1.57 0.05 94 1005.0
20260507101508 44 340 0.0 0.0 0.00 1.57 0.05 93 1004.7
20260507100007 44 340 0.0 0.0 0.00 1.57 0.05 93 1004.5
20260507094508 44 340 0.0 0.0 0.00 1.57 0.05 93 1004.6
20260507093006 44 340 0.0 0.0 0.00 1.57 0.05 93 1004.6
20260507091505 44 340 0.0 0.0 0.00 1.57 0.05 93 1004.7
20260507090005 44 340 0.0 0.0 0.00 1.57 0.05 93 1004.5
20260507084504 44 340 0.0 0.0 0.00 1.58 0.05 93 1003.9
20260507083002 44 340 0.0 0.0 0.00 1.58 0.05 92 1004.2
20260507081615 45 340 0.0 0.0 0.00 1.58 0.05 92 1004.7
20260507080115 45 340 0.0 0.0 0.00 1.58 0.05 92 1004.5
20260507074557 45 340 0.0 0.0 0.00 1.58 0.05 91 1004.3
20260507073056 45 340 0.0 0.9 0.00 1.58 0.05 91 1004.2
20260507071609 45 340 0.0 1.7 0.00 1.58 0.05 90 1004.3
20260507070055 46 340 0.0 5.2 0.00 1.58 0.05 89 1003.9
20260507064551 46 332 2.6 6.1 0.00 1.58 0.05 90 1003.8
20260507063048 46 355 0.0 4.3 0.00 1.58 0.05 92 1004.0
20260507061546 46 331 0.0 2.6 0.00 1.58 0.05 92 1004.0